Regional Weather Roundup
Issued by NWS Cleveland, OH

Home | Current Version | Previous Version | Graphics & Text | Print | Product List | Glossary On
Versions: 1 2 3 4 5 6 7 8 9 10 11 12 13 14 15 16 17 18 19 20 21 22 23 24 25 26 27 28 29 30 31 32 33 34 35 36 37 38 39 40 41 42 43 44 45 46 47 48 49 50
000
ASUS41 KCLE 241802
RWRCLE
OHIO REGIONAL WEATHER ROUNDUP
NATIONAL WEATHER SERVICE CLEVELAND, OH
200 PM EDT THU APR 24 2014

NOTE: "FAIR" INDICATES FEW OR NO CLOUDS BELOW 12,000 FEET WITH NO
SIGNIFICANT WEATHER AND/OR OBSTRUCTIONS TO VISIBILITY.

OHZ001>008-015>018-024>027-034-035-043-044-241900-
   NORTHWEST OHIO

CITY           SKY/WX    TMP DP  RH WIND       PRES   REMARKS
DEFIANCE       PTSUNNY   56  20  24 E14G21    30.05F
FINDLAY        MOSUNNY   58  22  24 E14       30.05F
TOLEDO EXPRESS PTSUNNY   54  18  24 E14       30.07F
TOLEDO EXEC    PTSUNNY   53  19  26 E13       30.09F
LIMA           PTSUNNY   60  23  24 E14G21    30.04F
$$

OHZ009>014-019>023-028>033-038-089-241900-
   NORTHEAST OHIO

CITY           SKY/WX    TMP DP  RH WIND       PRES   REMARKS
CLE-HOPKINS    PTSUNNY   55  22  27 NE12      30.13F
CLE-LAKEFRONT  SUNNY     47  36  65 N10       30.11F
CUY CO. ARPT   PTSUNNY   52  28  40 N12       30.12F
LORAIN-ELYRIA  SUNNY     55  16  21 CALM      30.10F
ASHTABULA      SUNNY     52  20  28 NE8       30.12F
AKRON-CANTON   PTSUNNY   54  16  22 E7        30.10F
WOOSTER        LGT RAIN  53  22  29 E14       30.08F
MANSFIELD      MOSUNNY   54  21  27 E9        30.07F
YOUNGSTOWN     MOSUNNY   53  16  23 VRB3      30.10F
$$

OHZ042-051>053-060>062-070>072-077>081-241900-
  SOUTHWEST OHIO

CITY           SKY/WX    TMP DP  RH WIND       PRES   REMARKS
CINC-COVINGTON PTSUNNY   61  29  29 E8G16     30.00F
CINC-LUNKEN    MOSUNNY   59  25  27 VRB7      30.02F
HAMILTON       MOSUNNY   62  26  25 E12       30.02F
DAYTON         PTSUNNY   60  21  22 E14G22    30.02F
WRIGHT-PAT AFB MOSUNNY   60  20  21 E15       30.02F
DAYTON GENERAL MOSUNNY   58  22  24 SE12      30.01F
WILMINGTON     SUNNY     59  20  22 SE9       30.03F
$$

OHZ036-037-039>041-045>050-054>059-063>069-073>076-082>088-241900-
  CENTRAL AND SOUTHEAST OHIO

CITY           SKY/WX    TMP DP  RH WIND       PRES   REMARKS
COLUMBUS       CLOUDY    59  17  19 E12       30.05F
OSU AIRPORT    PTSUNNY   56  17  21 SE9       30.05F
BOLTON FIELD   PTSUNNY   55  21  26 E12       30.06F
RICKENBACK AFB NOT AVBL
NEWARK         SUNNY     57  17  21 E13       30.05F
MARION         MOSUNNY   57  20  23 SE14      30.06F
LANCASTER      PTSUNNY   58  18  21 E12       30.05F
ZANESVILLE     SUNNY     57  21  24 E10       30.06F
NEW PHILLY     SUNNY     54  17  23 S5        30.09F
$$



USA.gov is the U.S. government's official web portal to all federal, state and local government web resources and services.